Location: Boiro
(42.6475°N, 8.8834°W)
Time: 23:29:53
(UTC+01:00)

Transit 2A - Pass Details

Date: 30 November 2021
Orbit: 591 x 967 km, 66.7° (Epoch: 18 January)

Event Time Altitude Azimuth Distance (km) Brightness Sun altitude
Rises 05:20:33 0° 286° (WNW) 3,448 - -37.0°
Reaches altitude 10° 05:25:32 10° 322° (NW) 2,606 - -36.0°
Maximum altitude 05:26:56 11° 336° (NNW) 2,573 - -35.8°
Drops below altitude 10° 05:28:22 10° 349° (N) 2,649 - -35.5°
Exits shadow 05:30:16 - 5° (N) 2,902 9.0 -35.2°
Sets 05:33:38 0° 26° (NNE) 3,649 9.8 -34.6°
